カタログに戻る

STARLINK-35844

運用中通信VLEO
NORAD 66880·PAYLOAD·🇺🇸 United States

打ち上げ Dec 4, 2025 から Vandenberg Space Force Base

Loading…

次のパス (今後24時間)

TLE

最新Source: CelesTrak SupGP

元期: Sep 14, 2026, 21:14 UTC

1 66880C 25283C   26257.88520833  .00039635  00000+0  11710-2 0  2571
2 66880  53.1587 223.9249 0001507  90.8228 183.9458 15.34371853    11

AllMySatでSTARLINK-35844をリアルタイム追跡

Download on the App Store